Location: ??????
(55.7522°N, 37.6156°E)
Time: 18:29:28
(UTC+00:00)

Cosmos 1190 Rocket - Pass Details

Date: 14 June 2025
Orbit: 754 x 775 km, 74.1° (Epoch: 13 July)

Event Time Altitude Azimuth Distance (km) Brightness Sun altitude
Exits shadow 21:32:20 13° 200° (SSW) 2,121 5.7 -10.9°
Maximum altitude 21:37:05 79° 116° (ESE) 793 4.0 -10.9°
Drops below altitude 10° 21:42:22 10° 30° (NNE) 2,324 7.6 -10.9°
Sets 21:44:45 0° 29° (NNE) 3,251 8.5 -10.9°
